Location: �perlecques
(50.8057°N, 2.1521°E)
Time: 12:49:52
(UTC+00:00)

CUBEBUG 2 - Visible Passes

Search period start: 20 September 2021 00:00
Search period end: 30 September 2021 00:00
Orbit: 586 x 696 km, 97.7° (Epoch: 19 September)

Date Brightness Start Highest point End Pass type
(mag) Time Alt. Az. Time Alt. Az. Time Alt. Az.
20 Sep ? 02:15:42 10° NE 02:18:50 17° E 02:21:57 10° SE visible
20 Sep ? 03:51:09 10° N 03:55:54 72° WNW 03:59:41 16° SSW visible
21 Sep ? 02:38:48 10° NE 02:42:51 27° E 02:45:58 14° SE visible
21 Sep ? 04:15:02 10° N 04:19:34 45° WNW 04:23:33 13° SW visible
22 Sep ? 03:02:13 10° NNE 03:06:46 43° E 03:09:50 19° SSE visible
22 Sep ? 04:39:04 10° N 04:43:09 29° WNW 04:47:10 10° WSW visible
23 Sep ? 01:52:45 10° ENE 01:53:08 10° E 01:53:32 10° E visible
23 Sep ? 03:25:50 10° NNE 03:30:35 71° ESE 03:33:42 21° S visible
23 Sep ? 05:03:16 10° NNW 05:06:38 20° WNW 05:09:58 10° WSW visible
24 Sep ? 02:14:11 10° NE 02:17:14 17° E 02:19:58 11° SE visible
24 Sep ? 03:49:35 10° N 03:54:20 73° WNW 03:57:34 20° SSW visible
25 Sep ? 02:37:15 10° NE 02:41:15 26° E 02:43:50 17° SE visible
25 Sep ? 04:13:28 10° N 04:17:59 45° WNW 04:21:25 16° SW visible
26 Sep ? 03:00:39 10° NNE 03:05:10 42° E 03:07:41 23° SSE visible
26 Sep ? 04:37:28 10° N 04:41:33 29° WNW 04:45:17 11° WSW visible
27 Sep ? 03:24:16 10° NNE 03:28:59 69° E 03:31:32 26° S visible
27 Sep ? 05:01:41 10° NNW 05:05:03 20° WNW 05:08:21 10° WSW visible
28 Sep ? 02:12:41 10° NE 02:15:37 16° E 02:17:47 12° ESE visible
28 Sep ? 03:48:00 10° N 03:52:44 74° WNW 03:55:22 25° SSW visible
29 Sep ? 02:35:43 10° NE 02:39:37 26° E 02:41:37 19° SE visible
29 Sep ? 04:11:53 10° N 04:16:23 46° WNW 04:19:13 20° SW visible
